Location: Escout
(43.1833°N, 0.5500°W)
Time: 22:17:30
(UTC+00:00)

Daily predictions for brighter satellites

Satellite Brightness Start Highest point End
(mag) Time Altitude Azimuth Time Altitude Azimuth Time Altitude Azimuth
Cosmos 1674 Rocket 4.1 17:59:57 10° N 18:04:03 36° ENE 18:08:09 10° SE
YAOGAN 1 3.5 18:01:58 10° SE 18:05:35 27° ENE 18:09:13 10° N
Cosmos 968 Rocket 4.4 18:02:07 10° SSE 18:06:25 26° E 18:10:43 10° NE
Okean O Rocket 2.7 18:05:56 10° ESE 18:09:28 25° ENE 18:13:03 10° NNE
Lacrosse 4 Rocket 3.2 18:09:31 10° SE 18:11:11 12° ESE 18:12:52 10° E
USA 229 DEB 4.4 18:04:44 10° NW 18:12:10 71° WSW 18:20:02 10° SSE
USA 229 4.4 18:04:50 10° NW 18:12:16 72° WSW 18:20:08 10° SSE
Nadezhda 4 Rocket 4.4 18:08:00 10° SSE 18:13:52 42° E 18:19:45 10° NNE
SKYMED 2 3.6 18:11:06 10° NNE 18:15:28 86° ESE 18:19:49 10° SSW
Cosmos 2227 Rocket 4.3 18:12:39 10° NW 18:17:34 31° WSW 18:22:28 10° SSW
PSLV R/B 3.6 18:17:58 10° SSE 18:21:37 67° ENE 18:25:16 10° N
Cosmos 1726 2.1 18:18:33 10° S 18:22:08 59° E 18:25:44 10° NNE
Cosmos 2322 Rocket 3.2 18:17:46 10° SSE 18:22:11 24° ESE 18:26:37 10° NE
Cosmos 2285 Rocket 4.3 18:16:28 10° N 18:22:33 45° ENE 18:28:38 10° SE
CZ-4 R/B 4.4 18:20:52 10° SSE 18:24:58 90° WSW 18:29:06 10° NNW
Cosmos 1470 4.0 18:24:05 10° SE 18:26:57 20° E 18:29:48 10° NE
CZ-4B R/B 3.3 18:22:35 10° SSE 18:27:50 57° ENE 18:33:13 10° N
Cosmos 1980 Rocket 2.9 18:22:27 10° SW 18:28:00 59° WNW 18:33:34 10° NNE
Cosmos 841 Rocket 3.6 18:24:04 10° NNW 18:29:15 79° WSW 18:34:22 10° SSE
Cosmos 1378 Rocket 3.5 18:26:19 10° N 18:30:41 70° E 18:34:59 10° SSE
Timation 2 Rocket 4.0 18:25:50 10° NNW 18:32:17 87° ENE 18:38:25 10° SSE
ARGOS Delta rocket 3.9 18:27:36 10° NNE 18:32:49 68° E 18:37:42 10° S
DMSP B5D2-2 4.5 18:28:18 10° N 18:33:33 69° WNW 18:38:46 10° SSW
Cosmos 2292 Rocket 4.2 18:32:00 10° SSE 18:36:57 39° E 18:40:47 10° NNE
Meteor 2-14 Rocket 4.4 18:32:38 10° S 18:38:41 84° E 18:44:46 10° N
Cosmos 1733 Rocket 4.1 18:36:46 10° SSW 18:41:05 50° WNW 18:45:26 10° N
USA 215 4.0 18:39:21 10° NE 18:45:39 52° NNW 18:51:56 10° WSW
COBE Rocket 3.8 18:41:08 10° SSE 18:46:01 84° ENE 18:50:46 10° N
Cosmos 2221 Rocket 4.5 18:44:15 10° NNW 18:48:41 54° W 18:53:07 10° S
Cosmos 1844 Rocket 3.7 18:45:37 10° N 18:50:30 29° NE 18:52:59 21° E
Cosmos 2278 4.0 18:45:43 10° SSW 18:51:22 70° WNW 18:57:04 10° NNE
SL-16 R/B 2.2 18:46:38 10° S 18:52:11 59° ESE 18:57:45 10° NNE
Cosmos 1092 Rocket 4.2 18:49:18 10° SSE 18:55:20 50° E 19:01:20 10° NNE
Cosmos 1570 Rocket 4.0 18:50:56 10° NNW 18:56:10 62° ENE 19:00:57 12° SSE
Landsat 5 4.3 18:53:15 10° NNE 18:57:16 31° E 19:01:11 10° SSE
Meteor 2-21 Rocket 4.4 18:55:21 10° S 19:01:24 88° E 19:07:28 10° N
SJ-6B 3.7 19:02:07 28° ENE 19:02:07 28° ENE 19:05:13 10° N
DMSP B5D1-3 4.4 18:57:36 10° NNE 19:02:44 80° ESE 19:07:51 10° S
HJ-1C 3.4 19:00:05 10° S 19:03:10 70° W 19:06:16 10° NNW
Cosmos 1437 Rocket 2.5 19:00:43 10° S 19:04:27 87° ESE 19:08:12 10° N
Cosmos 2263 Rocket 3.2 19:04:22 10° NW 19:09:49 48° WSW 19:15:15 10° S
Meteor 1-24 Rocket 3.6 19:06:31 10° N 19:11:47 61° ENE 19:16:12 15° SSE
Meteor 2-16 Rocket 4.5 19:09:14 10° S 19:15:21 86° W 19:21:33 10° N
OAO 2 Rocket 4.4 19:11:10 10° WSW 19:15:28 31° S 19:17:05 25° SSE
Feng Yun 1-1 Rocket 4.1 19:10:16 10° SSE 19:15:46 88° ENE 19:21:13 10° NNW
SL-4 R/B 2.3 19:11:28 10° WNW 19:15:58 77° SW 19:17:51 36° SE
Cosmos 2084 Rocket 3.4 19:15:49 10° NNW 19:19:35 49° NE 19:19:51 48° ENE
USA 267 3.6 19:14:27 15° SE 19:19:56 64° SW 19:26:28 10° NW
Okean-O 3.0 19:20:29 42° E 19:20:43 42° ENE 19:24:54 10° N
Cosmos 1486 Rocket 4.2 19:16:37 10° S 19:21:41 48° ESE 19:26:48 10° NNE
CZ-4 R/B 1.8 19:17:50 10° S 19:21:58 64° W 19:26:08 10° NNW
OBJECT-B 3.0 19:24:56 12° N 19:24:56 12° N 19:25:12 10° N
ISS -1.5 19:20:22 10° W 19:22:59 21° SW 19:24:26 16° S
IGS 5A 3.6 19:24:37 50° ENE 19:24:37 50° ENE 19:28:35 10° N
Cosmos 2208 Rocket 4.0 19:19:25 10° NNW 19:24:51 86° ENE 19:28:16 24° SSE
Cosmos 1844 4.0 19:19:55 10° NNW 19:25:12 43° ENE 19:26:13 39° E
DNEPR-1 R/B 3.7 19:21:13 10° SSW 19:25:45 70° ESE 19:30:36 13° NE
Meteor 1-22 Rocket 4.1 19:21:21 10° S 19:26:45 87° W 19:32:24 10° N
Cosmos 2333 Rocket 4.1 19:23:30 10° SSE 19:24:21 14° SSE 19:24:21 14° SSE
Cosmos 1300 Rocket 4.0 19:30:15 43° NE 19:30:15 43° NE 19:33:31 10° NNE
CSL-04 Debris 4.0 19:28:02 29° SSE 19:30:48 70° ENE 19:36:11 10° N
Cosmos 1428 Rocket 4.4 19:24:43 10° S 19:30:54 89° W 19:37:11 10° N
Cosmos 1627 Rocket 4.3 19:28:16 10° S 19:34:22 88° ESE 19:40:32 10° N
Cosmos 2360 Rocket 2.1 19:31:09 10° S 19:36:42 63° ESE 19:42:16 10° NNE
Cosmos 1782 Rocket 3.8 19:33:19 10° SSW 19:37:38 68° W 19:41:59 10° N
USA 81 3.9 19:35:12 10° N 19:40:30 86° E 19:43:22 28° S
Cosmos 1025 Rocket 2.9 19:40:09 10° N 19:44:29 86° W 19:44:51 74° S
Okean O Rocket 3.3 19:41:46 10° SSW 19:45:40 32° W 19:49:36 10° NNW
Lacrosse 4 Rocket 1.8 19:45:11 10° SW 19:49:12 61° WNW 19:50:17 43° N
Cosmos 2026 Rocket 4.1 19:44:56 10° SSW 19:50:57 71° W 19:57:02 10° N
USA 186 3.6 19:55:51 30° NW 19:55:51 30° NW 19:57:47 10° NNW
CSL-04 Rocket 3.6 19:55:05 46° S 19:56:44 80° WSW 20:02:10 10° NNW
Landsat 7 4.1 20:04:06 61° N 20:04:06 61° N 20:08:00 10° NNW
Cosmos 1553 Rocket 3.9 19:58:57 10° N 20:05:21 83° E 20:06:33 62° SSE
Cosmos 2322 Rocket 2.9 20:00:16 10° SW 20:05:50 53° WNW 20:11:25 10° NNE
Cosmos 1975 Rocket 4.1 20:05:32 10° NNW 20:09:42 42° W 20:10:19 40° WSW
NOSS 3-4 (A) 4.5 20:05:30 10° NNW 20:11:51 38° NE 20:12:04 38° NE
NOSS 3-4 (C) 4.5 20:05:36 10° NNW 20:11:57 38° NE 20:12:10 38° NE
NOSS 3-3 (A) 3.8 20:14:03 10° SW 20:19:34 78° NW 20:20:03 73° N
NOSS 3-3 (C) 3.8 20:14:09 10° SW 20:19:40 79° NW 20:19:58 76° NNW
Aureole 1 Rocket 4.0 20:16:06 10° SSW 20:23:43 86° WNW 20:29:46 10° NNE
Cosmos 1844 Rocket 3.4 20:29:11 10° NW 20:34:36 47° WSW 20:34:40 47° WSW
Resurs 01 Rocket 3.9 20:38:53 20° NNW 20:38:53 20° NNW 20:40:15 10° NNW
SL-16 R/B 4.3 20:32:09 10° WSW 20:36:41 24° NW 20:41:14 10° N
Cosmos 2278 Rocket 4.1 20:45:23 10° N 20:47:32 21° N 20:47:32 21° N
Cosmos 2360 Rocket 4.3 21:16:46 10° WSW 21:21:09 23° NW 21:25:33 10° N
ATLAS 2AS CENTAUR R/B 4.4 21:45:34 10° NNW 21:49:00 26° N 21:49:00 26° N
